Location: Unspecified
(47.9110°N, 14.3980°E)
Time: 04:59:05
(UTC+00:00)

Cosmos 676 Rocket - Pass Details

Date: 06 August 2020
Orbit: 754 x 784 km, 74.0° (Epoch: 19 September)

Event Time Altitude Azimuth Distance (km) Brightness Sun altitude
Exits shadow 20:48:09 23° 189° (S) 1,627 5.3 -18.5°
Maximum altitude 20:51:32 73° 109° (ESE) 823 3.9 -18.8°
Drops below altitude 10° 20:56:52 10° 26° (NNE) 2,352 6.9 -19.3°
Sets 20:59:17 0° 25° (NNE) 3,285 7.7 -19.6°
